Home > Weather > San Angelo > Past weeks

Flag for USA Past Weather in San Angelo, Texas, USA — Yesterday and Last 2 Weeks

Now
89 °F

Light rain. Scattered clouds.


Feels Like: 91 °F
Forecast: 71 / 94 °F
Wind: 5 mph from East

Location: Mathis Field

Current Time: Jul 28, 2016 at 3:22:30 PM

Latest Report: Jul 28, 2016 at 2:51 PM


Visibility: 10 mi

Pressure: 29.92 "Hg (28.09 "Hg at 561m altitude)

Humidity: 45%

Dew Point: 65 °F

Location of San AngeloLocation

Past Weather in San Angelo — Graph

°F

San Angelo Temperature Yesterday

Maximum temperature yesterday: 98 °F (at 3:51 PM)
Minimum temperature yesterday: 71 °F (at 5:51 AM)
Average temperature yesterday: 84 °F

High & Low Weather Summary for the Past Weeks

 TemperatureHumidityPressure
High102 °F (Jul 13, 3:51 PM)87% (Jul 28, 6:51 AM)30.15 "Hg (Jul 28, 6:51 AM)
Low70 °F (Jul 26, 6:51 AM)19% (Jul 15, 6:51 PM)29.77 "Hg (Jul 14, 6:51 PM)
Average87 °F47%29.94 "Hg
* Reported Jul 13 1:51 PM — Jul 28 1:51 PM, San Angelo, Weather by CustomWeather, © 2016

Note: Actual official high and low records may vary slightly from our data, if they occured in-between our weather recording intervals... More about our weather records

Advertising

San Angelo Weather History for the Previous 24 Hours

Scroll right to see more
 ConditionsComfort  
Time TempWeatherWind HumidityBarometerVisibility
1:51 PM
Thu, Jul 28
90 °FThundershowers. Passing clouds.13 mph43%29.94 "Hg10 mi
12:51 PM89 °FPassing clouds.3 mph45%29.96 "Hg10 mi
11:51 AM88 °FSunny.6 mph52%29.98 "Hg10 mi
10:51 AM86 °FPartly sunny.N/A57%29.98 "Hg10 mi
9:51 AM79 °FPassing clouds.6 mph72%29.99 "Hg10 mi
8:51 AM78 °FPassing clouds.8 mph74%29.99 "Hg10 mi
7:51 AM74 °FHaze.3 mph79%29.98 "Hg6 mi
6:51 AM71 °FClear.No wind87%29.95 "Hg8 mi
5:51 AM71 °FClear.3 mph84%29.92 "Hg9 mi
4:51 AM73 °FClear.No wind81%29.91 "Hg9 mi
3:51 AM75 °FPassing clouds.7 mph79%29.90 "Hg10 mi
2:51 AM76 °FPassing clouds.5 mph74%29.91 "Hg10 mi
1:51 AM78 °FPassing clouds.6 mph69%29.92 "Hg10 mi
12:51 AM78 °FPassing clouds.5 mph66%29.93 "Hg10 mi
11:51 PM
Wed, Jul 27
79 °FClear.8 mph65%29.92 "Hg10 mi
10:51 PM81 °FClear.9 mph65%29.90 "Hg10 mi
9:51 PM83 °FClear.10 mph59%29.88 "Hg10 mi
8:51 PM84 °FSunny.10 mph61%29.86 "Hg10 mi
7:51 PM85 °FScattered clouds.14 mph59%29.84 "Hg10 mi
6:51 PM93 °FPartly sunny.14 mph36%29.82 "Hg10 mi
5:51 PM98 °FSunny.8 mph29%29.83 "Hg10 mi
4:51 PM97 °FSunny.7 mph32%29.82 "Hg10 mi
3:51 PM98 °FSunny.7 mph31%29.84 "Hg10 mi
Weather by CustomWeather, © 2016

See weather overviewHow to use our weather pages